Flag for Papua New Guinea Weather past 2 weeks in Port Moresby, Papua New Guinea

Now
75 °F

Partly sunny.


Feels Like: 73 °F
Forecast: 78 / 88 °F
Wind: No wind

Location: Moresby


UV Index: 3 (Moderate)

Visibility: N/A


Pressure: 29.77 "Hg

Humidity: 100%

Dew point: 75 °F

Location of Port MoresbyLocation

Historic Weather in Port Moresby

°F

Port Moresby temperature yesterday

Maximum temperature yesterday: 86 °F (at 2:00 PM)
Minimum temperature yesterday: 75 °F (at 2:00 AM)
Average temperature yesterday: 79 °F

Past Weeks' High & Low Weather Summary

 TemperatureHumidityPressure
High90 °F (Apr 5, 12:00 PM)100% (Apr 4, 6:00 AM)29.89 "Hg (Apr 4, 6:00 AM)
Low64 °F (Apr 15, 12:00 PM)59% (Apr 4, 11:00 AM)29.65 "Hg (Apr 8, 3:00 PM)
Average80 °F86%29.75 "Hg
* Reported Apr 4 6:00 AM — Apr 19 6:00 AM, Port Moresby, Weather by CustomWeather, © 2014

Note: Actual official high and low records may vary slightly from our data, if they occured in-between our weather recording intervals... More about our weather records

Advertising

Historic Weather Conditions — Data for Previous 24 hours

 ConditionsComfort  
Time TempWeatherWind HumidityBarometerVisibility
6:00 AM
Apr 19
75 °FPassing clouds.No wind94%29.77 "HgN/A
5:00 AM75 °FPartly cloudy.No wind100%29.77 "HgN/A
4:00 AM75 °FPartly cloudy.No wind100%29.74 "HgN/A
3:00 AM75 °FPassing clouds.No wind94%29.77 "HgN/A
2:00 AM75 °FPartly cloudy.No wind94%29.77 "HgN/A
1:00 AM75 °FPassing clouds.No wind94%29.80 "HgN/A
12:00 AM75 °FPassing clouds.No wind94%29.80 "HgN/A
11:00 PM
Apr 18
75 °FPartly cloudy.No wind94%29.80 "HgN/A
10:00 PM75 °FMostly cloudy.No wind94%29.83 "HgN/A
9:00 PM75 °FMostly cloudy.2 mph100%29.83 "HgN/A
8:00 PM77 °FMostly cloudy.2 mph94%29.80 "HgN/A
7:00 PM77 °FRain showers. Mostly cloudy.3 mph94%29.77 "HgN/A
6:00 PM79 °FThunderstorms. Mostly cloudy.7 mph84%29.77 "HgN/A
5:00 PM82 °FMostly cloudy.7 mph84%29.74 "HgN/A
4:00 PM82 °FOvercast.6 mph84%29.71 "HgN/A
2:00 PM86 °FMore clouds than sun.2 mph75%29.71 "HgN/A
1:00 PM84 °FMostly cloudy.2 mph79%29.74 "HgN/A
12:00 PM84 °FPartly sunny.3 mph74%29.77 "HgN/A
11:00 AM84 °FBroken clouds.3 mph79%29.80 "HgN/A
10:00 AM84 °FBroken clouds.No wind79%29.80 "HgN/A
9:00 AM81 °FPartly sunny.2 mph89%29.80 "HgN/A
8:00 AM79 °FScattered clouds.2 mph89%29.80 "HgN/A
Weather by CustomWeather, © 2014

See weather overview